DW2959 Murcia ES current weather conditions

sailwx.info

Wind from 074

Air temperature 22.2° C
Dewpoint 18.0° C

Last reported at 2016-Aug-28 01:41 UTC.
Time now 2016-Aug-28 02:18 UTC

Location: N 38°00' W 001°02'.
View on Google Maps.

See reports from other nearby stations

  
Tides and Currents Weather Stations Pressure Air Temp Water Temp Dewpoint Dewpoint Depression Visibility Wind Speed Wind Dir Waves Ship Positions
date/time (UTC)wind fromknots sea level pressurealtimeterstation pressurevisibilityair tempwater tempwave heightnotes
2016-Aug-28 01:41 074 22.2
2016-Aug-28 01:25 074 22.8
2016-Aug-28 01:11 074 22.8
2016-Aug-28 00:55 074 22.8
2016-Aug-28 00:39 074 23.3
2016-Aug-28 00:30 074 23.3
2016-Aug-28 00:10 074 23.3
2016-Aug-27 23:55 074 23.9
2016-Aug-27 23:40 074 23.9
2016-Aug-27 23:25 074 23.9
2016-Aug-27 23:09 074 24.4
2016-Aug-27 22:54 074 24.4
2016-Aug-27 22:40 074 24.4
2016-Aug-27 22:23 074 24.4
2016-Aug-27 22:08 074 24.4
2016-Aug-27 21:53 074 25.0
2016-Aug-27 21:39 076 1 gusting 4 25.0
2016-Aug-27 21:23 076 1 gusting 4 25.0
2016-Aug-27 21:08 070 1 gusting 6 25.0
2016-Aug-27 20:53 078 1 gusting 6 25.6
2016-Aug-27 20:38 076 0 gusting 5 25.6
2016-Aug-27 20:23 061 25.6
2016-Aug-27 20:10 058 1 gusting 6 26.1
2016-Aug-27 19:53 080 1 gusting 6 26.7
2016-Aug-27 19:37 096 2 gusting 6 26.7
2016-Aug-27 19:21 130 27.2
2016-Aug-27 19:07 130 1 gusting 6 27.2
2016-Aug-27 18:51 100 3 gusting 7 27.8
2016-Aug-27 18:37 123 0 gusting 6 28.3
2016-Aug-27 18:21 130 2 gusting 7 28.9
2016-Aug-27 18:06 193 28.9
2016-Aug-27 17:51 121 1 gusting 6 29.4
2016-Aug-27 17:38 126 1 gusting 7 30.0
2016-Aug-27 17:21 150 2 gusting 9 30.6
2016-Aug-27 17:06 154 2 gusting 8 30.6
2016-Aug-27 16:55 182 4 gusting 13 30.6
2016-Aug-27 16:35 128 2 gusting 12 31.1
2016-Aug-27 16:21 142 3 gusting 10 31.7
2016-Aug-27 16:05 119 2 gusting 9 32.2
2016-Aug-27 15:50 127 2 gusting 7 32.8
2016-Aug-27 15:40 185 2 gusting 6 32.8
2016-Aug-27 15:20 071 1 gusting 7 33.3
2016-Aug-27 15:05 142 2 gusting 7 33.3
2016-Aug-27 14:49 123 4 gusting 8 33.3
2016-Aug-27 14:35 126 4 gusting 9 33.3
2016-Aug-27 14:19 117 4 gusting 9 33.3
2016-Aug-27 14:03 121 3 gusting 7 33.3
2016-Aug-27 13:49 105 1 gusting 13 32.8
2016-Aug-27 13:39 005 4 gusting 10 32.8
2016-Aug-27 13:18 072 4 gusting 12 32.2
2016-Aug-27 13:03 076 5 gusting 12 31.7
2016-Aug-27 12:48 080 3 gusting 13 31.7
2016-Aug-27 12:32 044 5 gusting 10 31.1
2016-Aug-27 12:18 042 1 gusting 12 30.6
2016-Aug-27 12:02 011 3 gusting 8 30.6
2016-Aug-27 11:48 074 4 gusting 11 30.6
2016-Aug-27 11:32 040 3 gusting 10 29.4
2016-Aug-27 11:17 026 5 gusting 10 29.4
2016-Aug-27 11:01 029 1 gusting 7 29.4
2016-Aug-27 10:46 049 1 gusting 5 28.9
2016-Aug-27 10:32 005 0 gusting 6 27.8
2016-Aug-27 10:17 029 2 gusting 8 27.8
2016-Aug-27 10:01 032 0 gusting 4 28.3
2016-Aug-27 09:46 027 0 gusting 4 27.2
2016-Aug-27 09:31 323 26.7
2016-Aug-27 09:16 244 0 gusting 3 26.7
2016-Aug-27 09:01 242 25.6
2016-Aug-27 08:45 242 25.0
2016-Aug-27 08:29 239 24.4
2016-Aug-27 07:59 260 23.3
2016-Aug-27 07:44 257 22.8
2016-Aug-27 07:29 232 1 gusting 4 22.2
2016-Aug-27 07:13 214 0 gusting 3 21.7
2016-Aug-27 06:59 199 0 gusting 4 21.7
2016-Aug-27 06:43 134 21.1
2016-Aug-27 06:29 134 20.6
2016-Aug-27 06:14 133 20.0
2016-Aug-27 05:58 133 19.4
2016-Aug-27 05:42 132 18.9
2016-Aug-27 05:28 084 18.9
2016-Aug-27 05:12 084 19.4
2016-Aug-27 04:58 084 19.4
2016-Aug-27 04:43 084 19.4
2016-Aug-27 04:27 084 19.4
2016-Aug-27 04:12 084 19.4
2016-Aug-27 03:57 084 19.4
2016-Aug-27 03:44 084 19.4
2016-Aug-27 03:27 084 20.0
2016-Aug-27 03:11 084 20.6
2016-Aug-27 02:57 084 20.6
2016-Aug-27 02:41 084 20.6
2016-Aug-27 02:25 084 20.6
2016-Aug-27 02:11 084 21.1
2016-Aug-27 01:55 084 20.6
2016-Aug-27 01:41 082 1 gusting 3 21.1
2016-Aug-27 01:25 082 0 gusting 3 21.1
2016-Aug-27 01:10 086 0 gusting 5 21.1
2016-Aug-27 00:54 091 0 gusting 2 21.1
2016-Aug-27 00:29 091 21.1
2016-Aug-27 00:09 091 21.1
2016-Aug-26 23:55 091 21.7
2016-Aug-26 23:39 091 22.2
2016-Aug-26 23:24 091 22.2
2016-Aug-26 23:09 091 22.8
2016-Aug-26 22:54 091 22.8
2016-Aug-26 22:38 090 0 gusting 5 22.8
2016-Aug-26 22:24 086 22.8
2016-Aug-26 22:08 086 23.3
2016-Aug-26 21:53 086 23.3
2016-Aug-26 21:37 086 23.9
2016-Aug-26 21:23 086 23.9
2016-Aug-26 21:12 086 23.9
2016-Aug-26 20:52 086 24.4
2016-Aug-26 20:38 086 24.4
2016-Aug-26 20:22 086 25.0
2016-Aug-26 20:08 086 25.0
2016-Aug-26 19:52 086 25.0
2016-Aug-26 19:36 086 25.6
2016-Aug-26 19:22 087 25.6
2016-Aug-26 19:06 087 26.1
2016-Aug-26 18:51 082 1 gusting 6 26.1
2016-Aug-26 18:36 085 2 gusting 7 26.7
2016-Aug-26 18:21 076 2 gusting 6 27.2
2016-Aug-26 18:06 086 1 gusting 6 27.2
2016-Aug-26 17:51 057 2 gusting 6 27.8
2016-Aug-26 17:36 107 3 gusting 10 28.3
2016-Aug-26 17:20 081 4 gusting 9 28.3
2016-Aug-26 17:05 086 4 gusting 10 28.9
2016-Aug-26 16:51 098 5 gusting 10 28.9
2016-Aug-26 16:35 078 5 gusting 9 29.4
2016-Aug-26 16:19 101 5 gusting 10 29.4
2016-Aug-26 16:05 060 4 gusting 11 30.0
2016-Aug-26 15:49 055 3 gusting 8 30.6
2016-Aug-26 15:35 083 2 gusting 9 30.6
2016-Aug-26 15:20 081 3 gusting 11 30.6
2016-Aug-26 15:04 077 3 gusting 10 30.6
2016-Aug-26 14:49 061 2 gusting 9 30.6
2016-Aug-26 14:33 084 2 gusting 9 30.6
2016-Aug-26 14:18 058 3 gusting 10 30.6
2016-Aug-26 14:03 101 3 gusting 8 30.6
2016-Aug-26 13:47 132 4 gusting 9 30.0
2016-Aug-26 13:37 036 2 gusting 12 30.6
2016-Aug-26 13:18 086 0 gusting 6 30.6
2016-Aug-26 13:02 103 5 gusting 10 30.0
2016-Aug-26 12:48 109 1 gusting 10 29.4
2016-Aug-26 12:32 067 4 gusting 9 30.0
2016-Aug-26 12:17 095 4 gusting 8 29.4
2016-Aug-26 12:03 088 3 gusting 9 30.0
2016-Aug-26 11:47 074 3 gusting 8 29.4
2016-Aug-26 11:31 098 3 gusting 11 29.4
2016-Aug-26 11:17 048 1 gusting 9 29.4
2016-Aug-26 11:01 101 0 gusting 8 28.9
2016-Aug-26 10:46 060 0 gusting 9 28.3
2016-Aug-26 10:32 055 3 gusting 10 27.8
2016-Aug-26 10:19 055 2 gusting 7 27.8
2016-Aug-26 10:01 059 5 gusting 9 26.7
2016-Aug-26 09:46 049 0 gusting 6 26.7
2016-Aug-26 09:31 059 26.7
2016-Aug-26 09:16 055 0 gusting 4 26.1
2016-Aug-26 09:00 046 0 gusting 6 25.6
2016-Aug-26 08:44 042 1 gusting 6 25.6
2016-Aug-26 08:30 215 24.4
2016-Aug-26 08:14 215 0 gusting 3 23.9
2016-Aug-26 07:59 215 23.9
2016-Aug-26 07:45 215 1 gusting 4 23.3
2016-Aug-26 07:30 216 22.8
2016-Aug-26 07:15 215 22.8
2016-Aug-26 07:03 215 22.2
2016-Aug-26 06:43 215 21.1
2016-Aug-26 06:29 215 20.6
2016-Aug-26 06:13 215 20.6
2016-Aug-26 05:58 215 20.0
2016-Aug-26 05:43 215 20.0
2016-Aug-26 05:28 215 20.0
2016-Aug-26 05:13 215 20.6
2016-Aug-26 04:57 215 20.6
2016-Aug-26 04:42 215 21.1
2016-Aug-26 04:28 215 21.7
2016-Aug-26 04:12 215 21.7
2016-Aug-26 03:57 215 22.2
2016-Aug-26 03:41 215 22.2
2016-Aug-26 03:27 215 22.2
2016-Aug-26 03:11 214 22.2
2016-Aug-26 02:56 214 22.2
2016-Aug-26 02:43 207 22.2
2016-Aug-26 02:25 207 22.2
2016-Aug-26 02:11 187 22.2